Hitch-hike-heidi — DA5893 — position and weather

sailwx.info

Track history (hours):
 
Tides and Currents Weather Stations Pressure Air Temp Water Temp Dewpoint Dewpoint Depression Visibility Wind Speed Wind Dir Waves Ship Positions

Hitch-hike-heidi

Last reported at 2017-Sep-24 15:10 UTC. Time now 2017-Nov-18 15:51 UTC.
Position N 47°50' W 005°02'.
Warning: this ship's position is 55 days out of date.

Length 14 m.

Type: Sailing vessel. MMSI: 211215470.

Date/timePositionNaut miles runAvg speedWind from/ knotsBaromVisibWave heightAir tempDewpointWater temp
2017-Sep-24 15:10N 47°50' W 005°02'7 3.2
2017-Sep-24 12:53N 47°58' W 005°02'4 3.8
2017-Sep-24 11:49N 48°01' W 005°05'6 5.6
2017-Sep-24 10:43N 48°07' W 005°01'2 5.8
2017-Sep-24 10:24N 48°08' W 004°60'3 5.4
2017-Sep-24 09:53N 48°11' W 004°58'4 4.1
2017-Sep-24 08:53N 48°14' W 004°55'2 4.7
2017-Sep-24 08:30N 48°15' W 004°53'2 4.5
2017-Sep-24 08:00N 48°16' W 004°50'2 4.8
2017-Sep-24 07:30N 48°16' W 004°46'3 5.8
2017-Sep-24 07:00N 48°17' W 004°42'3 6.7
2017-Sep-24 06:30N 48°17' W 004°37'  
2017-Sep-21 08:56N 48°17' W 004°35'0 0.0
2017-Sep-21 08:29N 48°17' W 004°35'0 0.0
2017-Sep-21 07:59N 48°17' W 004°35'0 0.0
2017-Sep-21 07:30N 48°17' W 004°35'  
2017-Sep-16 16:27N 48°17' W 004°35'1 2.0
2017-Sep-16 16:00N 48°17' W 004°36'3 5.7
2017-Sep-16 15:30N 48°18' W 004°40'3 5.9
2017-Sep-16 15:00N 48°19' W 004°45'3 6.1
2017-Sep-16 14:30N 48°21' W 004°48'4 6.9
2017-Sep-16 13:58N 48°24' W 004°49'2 5.1
2017-Sep-16 13:29N 48°27' W 004°51'3 6.3
2017-Sep-16 13:00N 48°30' W 004°52'3 5.2
2017-Sep-16 12:30N 48°32' W 004°52'3 5.6
2017-Sep-16 12:00N 48°35' W 004°50'2 4.7
2017-Sep-16 11:29N 48°37' W 004°49'2 3.3
2017-Sep-16 10:54N 48°39' W 004°47'  
Track history (hours):
 
Tides and Currents Weather Stations Pressure Air Temp Water Temp Dewpoint Dewpoint Depression Visibility Wind Speed Wind Dir Waves Ship Positions

Hitch-hike-heidi

Last reported at 2017-Sep-24 15:10 UTC. Time now 2017-Nov-18 15:51 UTC.
Position N 47°50' W 005°02'.
Warning: this ship's position is 55 days out of date.

Length 14 m.

Type: Sailing vessel. MMSI: 211215470.

Date/timePositionNaut miles runAvg speedWind from/ knotsBaromVisibWave heightAir tempDewpointWater temp
2017-Sep-24 15:10N 47°50' W 005°02'7 3.2
2017-Sep-24 12:53N 47°58' W 005°02'4 3.8
2017-Sep-24 11:49N 48°01' W 005°05'6 5.6
2017-Sep-24 10:43N 48°07' W 005°01'2 5.8
2017-Sep-24 10:24N 48°08' W 004°60'3 5.4
2017-Sep-24 09:53N 48°11' W 004°58'4 4.1
2017-Sep-24 08:53N 48°14' W 004°55'2 4.7
2017-Sep-24 08:30N 48°15' W 004°53'2 4.5
2017-Sep-24 08:00N 48°16' W 004°50'2 4.8
2017-Sep-24 07:30N 48°16' W 004°46'3 5.8
2017-Sep-24 07:00N 48°17' W 004°42'3 6.7
2017-Sep-24 06:30N 48°17' W 004°37'  
2017-Sep-21 08:56N 48°17' W 004°35'0 0.0
2017-Sep-21 08:29N 48°17' W 004°35'0 0.0
2017-Sep-21 07:59N 48°17' W 004°35'0 0.0
2017-Sep-21 07:30N 48°17' W 004°35'  
2017-Sep-16 16:27N 48°17' W 004°35'1 2.0
2017-Sep-16 16:00N 48°17' W 004°36'3 5.7
2017-Sep-16 15:30N 48°18' W 004°40'3 5.9
2017-Sep-16 15:00N 48°19' W 004°45'3 6.1
2017-Sep-16 14:30N 48°21' W 004°48'4 6.9
2017-Sep-16 13:58N 48°24' W 004°49'2 5.1
2017-Sep-16 13:29N 48°27' W 004°51'3 6.3
2017-Sep-16 13:00N 48°30' W 004°52'3 5.2
2017-Sep-16 12:30N 48°32' W 004°52'3 5.6
2017-Sep-16 12:00N 48°35' W 004°50'2 4.7
2017-Sep-16 11:29N 48°37' W 004°49'2 3.3
2017-Sep-16 10:54N 48°39' W 004°47'  

Dump ship's entire track history